Previsão horária em Centar Zupa

Hoje, 25 Julho, Domingo

Tempo Temperatura Precipitação Vento Pressão Humidade
00:00 +18°C° 0 mm 1 m/s 689 mmHg 62%
01:00 +18°C° 0 mm 1 m/s 689 mmHg 63%
02:00 +16°C° 0 mm 1 m/s 688 mmHg 64%
03:00 +16°C° 0 mm 1 m/s 688 mmHg 64%
04:00 +16°C° 0 mm 1 m/s 688 mmHg 65%
05:00 +19°C° 0 mm 1 m/s 689 mmHg 60%
06:00 +21°C° 0 mm 1 m/s 689 mmHg 54%
07:00 +23°C° 0 mm 1 m/s 690 mmHg 48%
08:00 +25°C° 0 mm 1 m/s 690 mmHg 44%
09:00 +27°C° 0 mm 1 m/s 691 mmHg 39%
10:00 +27°C° 0 mm 0 m/s 691 mmHg 34%
11:00 +30°C° 0 mm 1 m/s 691 mmHg 33%
12:00 +31°C° 0 mm 1 m/s 691 mmHg 31%
13:00 +32°C° 0 mm 1 m/s 690 mmHg 30%
14:00 +32°C° 0 mm 1 m/s 690 mmHg 30%
15:00 +32°C° 0 mm 1 m/s 690 mmHg 29%
16:00 +32°C° 0 mm 1 m/s 690 mmHg 29%
17:00 +30°C° 0 mm 1 m/s 690 mmHg 35%
18:00 +27°C° 0 mm 1 m/s 689 mmHg 42%
19:00 +25°C° 0 mm 1 m/s 689 mmHg 48%
20:00 +24°C° 0 mm 1 m/s 689 mmHg 50%
21:00 +23°C° 0 mm 1 m/s 690 mmHg 51%
22:00 +22°C° 0 mm 1 m/s 690 mmHg 53%
23:00 +22°C° 0 mm 1 m/s 690 mmHg 54%

Amanhã, 26 Julho, Segunda-feira

Tempo Temperatura Precipitação Vento Pressão Humidade
00:00 +21°C° 0 mm 1 m/s 690 mmHg 55%
01:00 +21°C° 0 mm 1 m/s 689 mmHg 56%
02:00 +21°C° 0 mm 1 m/s 689 mmHg 57%
03:00 +21°C° 0 mm 1 m/s 689 mmHg 57%
04:00 +20°C° 0 mm 1 m/s 689 mmHg 58%
05:00 +22°C° 0 mm 1 m/s 690 mmHg 54%
06:00 +23°C° 0 mm 0 m/s 691 mmHg 50%
07:00 +25°C° 0 mm 0 m/s 691 mmHg 45%
08:00 +29°C° 0 mm 1 m/s 692 mmHg 41%
09:00 +30°C° 0 mm 1 m/s 692 mmHg 36%
10:00 +32°C° 0 mm 2 m/s 692 mmHg 31%
11:00 +34°C° 0 mm 2 m/s 692 mmHg 29%
12:00 +35°C° 0 mm 2 m/s 692 mmHg 27%
13:00 +36°C° 0 mm 2 m/s 692 mmHg 25%
14:00 +35°C° 0 mm 2 m/s 692 mmHg 25%
15:00 +35°C° 0 mm 2 m/s 692 mmHg 26%
16:00 +35°C° 0 mm 2 m/s 692 mmHg 26%
17:00 +32°C° 0 mm 2 m/s 691 mmHg 33%
18:00 +29°C° 0 mm 1 m/s 691 mmHg 41%
19:00 +26°C° 0 mm 1 m/s 691 mmHg 48%
20:00 +25°C° 0 mm 1 m/s 691 mmHg 50%
21:00 +24°C° 0 mm 1 m/s 691 mmHg 51%
22:00 +23°C° 0 mm 1 m/s 692 mmHg 53%
23:00 +23°C° 0 mm 1 m/s 692 mmHg 53%

Depois de amanhã, 27 Julho, Terça-feira

Tempo Temperatura Precipitação Vento Pressão Humidade
00:00 +23°C° 0 mm 1 m/s 692 mmHg 53%
01:00 +23°C° 0 mm 1 m/s 691 mmHg 53%
02:00 +22°C° 0 mm 1 m/s 691 mmHg 53%
03:00 +22°C° 0 mm 1 m/s 691 mmHg 52%
04:00 +22°C° 0 mm 1 m/s 691 mmHg 52%
05:00 +24°C° 0 mm 1 m/s 692 mmHg 48%
06:00 +26°C° 0 mm 1 m/s 693 mmHg 44%
07:00 +27°C° 0 mm 0 m/s 693 mmHg 40%
08:00 +31°C° 0 mm 1 m/s 693 mmHg 35%
09:00 +33°C° 0 mm 1 m/s 694 mmHg 29%
10:00 +35°C° 0 mm 1 m/s 694 mmHg 24%
11:00 +36°C° 0 mm 2 m/s 694 mmHg 22%
12:00 +37°C° 0 mm 2 m/s 693 mmHg 20%
13:00 +38°C° 0 mm 3 m/s 693 mmHg 18%
14:00 +38°C° 0 mm 3 m/s 693 mmHg 18%
15:00 +37°C° 0 mm 3 m/s 693 mmHg 18%
16:00 +37°C° 0 mm 3 m/s 693 mmHg 19%
17:00 +34°C° 0 mm 3 m/s 693 mmHg 24%
18:00 +30°C° 0 mm 2 m/s 692 mmHg 29%
19:00 +27°C° 0 mm 2 m/s 692 mmHg 34%
20:00 +26°C° 0 mm 2 m/s 692 mmHg 33%
21:00 +25°C° 0 mm 2 m/s 692 mmHg 33%
22:00 +25°C° 0 mm 1 m/s 692 mmHg 32%
23:00 +24°C° 0 mm 2 m/s 692 mmHg 32%

28 Julho, Quarta-feira

Tempo Temperatura Precipitação Vento Pressão Humidade
00:00 +24°C° 0 mm 2 m/s 692 mmHg 31%
01:00 +24°C° 0 mm 2 m/s 692 mmHg 31%
02:00 +24°C° 0 mm 2 m/s 692 mmHg 31%
03:00 +24°C° 0 mm 1 m/s 691 mmHg 31%
04:00 +23°C° 0 mm 1 m/s 691 mmHg 31%
05:00 +26°C° 0 mm 1 m/s 692 mmHg 30%
06:00 +28°C° 0 mm 1 m/s 692 mmHg 30%
07:00 +30°C° 0 mm 1 m/s 693 mmHg 29%
08:00 +32°C° 0 mm 1 m/s 693 mmHg 25%
09:00 +34°C° 0 mm 1 m/s 693 mmHg 22%
10:00 +36°C° 0 mm 1 m/s 693 mmHg 18%
11:00 +37°C° 0 mm 1 m/s 693 mmHg 17%
12:00 +37°C° 0 mm 1 m/s 693 mmHg 16%
13:00 +39°C° 0 mm 1 m/s 693 mmHg 14%
14:00 +38°C° 0 mm 2 m/s 692 mmHg 15%
15:00 +38°C° 0 mm 3 m/s 692 mmHg 16%
16:00 +37°C° 0 mm 4 m/s 692 mmHg 17%
17:00 +34°C° 0 mm 3 m/s 692 mmHg 22%
18:00 +31°C° 0 mm 2 m/s 691 mmHg 27%
19:00 +28°C° 0 mm 2 m/s 691 mmHg 32%
20:00 +27°C° 0 mm 2 m/s 691 mmHg 32%
21:00 +26°C° 0 mm 2 m/s 691 mmHg 33%
22:00 +25°C° 0 mm 1 m/s 691 mmHg 33%
23:00 +25°C° 0 mm 1 m/s 691 mmHg 33%

29 Julho, Quinta-feira

Tempo Temperatura Precipitação Vento Pressão Humidade
00:00 +24°C° 0 mm 1 m/s 691 mmHg 32%
01:00 +24°C° 0 mm 1 m/s 691 mmHg 32%
02:00 +24°C° 0 mm 1 m/s 691 mmHg 32%
03:00 +24°C° 0 mm 1 m/s 690 mmHg 32%
04:00 +23°C° 0 mm 1 m/s 690 mmHg 32%
05:00 +26°C° 0 mm 1 m/s 691 mmHg 30%
06:00 +28°C° 0 mm 1 m/s 691 mmHg 29%
07:00 +30°C° 0 mm 1 m/s 692 mmHg 27%
08:00 +32°C° 0 mm 1 m/s 692 mmHg 23%
09:00 +34°C° 0 mm 1 m/s 692 mmHg 20%
10:00 +36°C° 0 mm 1 m/s 692 mmHg 16%
11:00 +37°C° 0 mm 1 m/s 692 mmHg 16%
12:00 +37°C° 0 mm 1 m/s 692 mmHg 15%
13:00 +39°C° 0 mm 2 m/s 692 mmHg 14%
14:00 +39°C° 0 mm 2 m/s 691 mmHg 15%
15:00 +38°C° 0 mm 2 m/s 691 mmHg 15%
16:00 +38°C° 0 mm 3 m/s 691 mmHg 16%
17:00 +35°C° 0 mm 2 m/s 690 mmHg 20%
18:00 +31°C° 0 mm 2 m/s 690 mmHg 25%
19:00 +28°C° 0 mm 1 m/s 690 mmHg 30%
20:00 +27°C° 0 mm 1 m/s 690 mmHg 30%
21:00 +26°C° 0 mm 1 m/s 690 mmHg 30%
22:00 +26°C° 0 mm 1 m/s 690 mmHg 30%
23:00 +25°C° 0 mm 1 m/s 690 mmHg 30%

30 Julho, Sexta-feira

Tempo Temperatura Precipitação Vento Pressão Humidade
00:00 +25°C° 0 mm 1 m/s 690 mmHg 30%
01:00 +25°C° 0 mm 1 m/s 690 mmHg 31%
02:00 +25°C° 0 mm 1 m/s 689 mmHg 31%
03:00 +25°C° 0 mm 1 m/s 689 mmHg 31%
04:00 +24°C° 0 mm 1 m/s 689 mmHg 31%
05:00 +27°C° 0 mm 1 m/s 690 mmHg 29%
06:00 +29°C° 0 mm 1 m/s 690 mmHg 27%
07:00 +30°C° 0 mm 0 m/s 691 mmHg 25%
08:00 +33°C° 0 mm 1 m/s 691 mmHg 22%
09:00 +35°C° 0 mm 1 m/s 691 mmHg 19%
10:00 +38°C° 0 mm 2 m/s 691 mmHg 16%
11:00 +39°C° 0 mm 2 m/s 691 mmHg 15%
12:00 +39°C° 0 mm 2 m/s 691 mmHg 14%
13:00 +40°C° 0 mm 3 m/s 690 mmHg 13%
14:00 +39°C° 0 mm 3 m/s 690 mmHg 13%
15:00 +39°C° 0 mm 3 m/s 690 mmHg 14%
16:00 +39°C° 0 mm 3 m/s 690 mmHg 14%
17:00 +36°C° 0 mm 3 m/s 689 mmHg 18%
18:00 +31°C° 0 mm 2 m/s 689 mmHg 23%
19:00 +28°C° 0 mm 2 m/s 689 mmHg 27%
20:00 +27°C° 0 mm 2 m/s 689 mmHg 27%
21:00 +27°C° 0 mm 2 m/s 689 mmHg 27%
22:00 +26°C° 0 mm 2 m/s 689 mmHg 27%
23:00 +26°C° 0 mm 2 m/s 689 mmHg 27%
Mostrar mais

Necessitamos do seu Consentimento

A Meteoprog e os seus Fornecedores de Serviços podem armazenar e aceder a dados pessoais como cookies, identificadores do dispositivo ou outras tecnologias semelhantes existentes no seu dispositivo e processar estes dados para personalizar conteúdos e anúncios, assim como funcionalidades nas redes sociais e análise de tráfego.

  • Armazenar e/ou aceder a informações no seu dispositivo

    Os cookies, identificadores do dispositivo ou outras informações podem ser armazenados ou acedidos no seu dispositivo, para os fins acima indicados.

  • Anúncios e conteúdos personalizados, medição de anúncios e conteúdos, dados sobre o público-alvo e desenvolvimento de produtos

    Os anúncios e os conteúdos podem ser personalizados com base num perfil. Podem ser adicionados dados adicionais para uma maior personalização dos anúncios e dos conteúdos. A eficácia dos anúncios e dos conteúdos pode ser medida. Podem ser obtidas informações sobre o público que visualizou os anúncios e os conteúdos. Estes dados podem ser usados para desenvolver ou melhorar sistemas, softwares ou a experiência do utilizador.

Ao clicar em "Eu concordo”, permitirá o uso de cookies, identificadores do dispositivo e web beacons mencionados ou outras tecnologias semelhantes. As configurações do navegador do seu dispositivo podem ser alteradas.

Para certos fins, podem ser invocados interesses legítimos ao invés de consentimento. Pode ler mais informação sobre este assunto na nossa Política de Privacidade e Cookies.